Showing default

LEMUR 2 STAR-FOX, 62696

Orbit data source: Space-Track

LEMUR 2 STAR-FOX, 62696 is a payload satellite owned by Spire (US) in SSO that was launched on Tue, 14 Jan 2025 UTC via an FALCON 9 launch vehicle from the Air Force Western Test Range (AFWTR). Payload-class satellites include a variety of spacecraft equipped with specific instruments for various scientific and technological missions. These include communications satellites like Starlink; space stations such as the ISS; scientific satellites like the Hubble; Earth observation satellites from companies like Planet Labs, Umbra, and HawkEye 360; GPS; miniature CubeSats for education and research; and military/defense satellites.

Loading next visibility...
Identifier
62696, 2025-009CR
Orbit
SSO
Country
Flag of USUS
Related business
Manufacturer
Spire/Glasgow
Mission
Operational Commercial Com/MetRO
Bus & Motor
CUBESAT 3U, Unknown motor
Mass
7.6 kg wet, 7.6 kg dry
Launch date (UTC)
2025-01-14 (1 year ago)
Launch vehicle
FALCON 9
Launch site
Air Force Western Test Range (AFWTR)
Object type
Payload
Rocket body
Debris
Shape & HBR
Box + 2 Pan, 0.2 m
Radar Cross Section
0.063 m², Small (<0.1 m²)

Expand to show TLE details & history
Last TLE update: 9 hours ago

TLE from 9 hours ago
0 LEMUR 2 STAR-FOX
1 62696U 25009CR  26124.99431066  .00007112  00000-0  54898-3 0  9996
2 62696  97.6892 206.9573 0000315 146.3746 213.7499 15.01865251 71078
Epoch: 2026-05-04T23:51Z
TLE epoch observation values (Epoch: 2026-05-04T23:51:48.441Z)
Latitude
0.00006°
Longitude
-13.87007°
Altitude
564.384 km
Speed
7.579 km/s
True Right ascension
13h 47m 49s
True Declination
0° 00' 00"
Sunlit
Object was in full shadow at epoch
Visualization orbit readout
Latitude
Unknown
Longitude
Unknown
Altitude
Unknown
Speed
Unknown
Apparent Right ascension
Unknown
Apparent Declination
Unknown
Sunlit
N/A
Visualization observer readout
Local Sidereal Time
16:45:58
Azimuth
Unknown
Elevation
Unknown
Doppler factor
Unknown
Orbital elements
Apogee altitude
558.366 km
Perigee altitude
557.929 km
Semi-major axis
6,936.284 km
Eccentricity
0.00003
Inclination
97.6892°
RAAN
206.9573°
Arg. of periapsis
146.3746°
True anomaly
213.74789°
Mean anomaly
213.7499°
Eccentric anomaly
213.7489°
Mean motion
3.7571 °/min
Orbital period
95.82 mins
BSTAR
0.00054898
Loading maneuver chart data...
Computing Atmospheric mass density...
Loading historical data...
Loading historical data...
Loading historical data...
Loading historical data...
Loading historical data...
Loading historical data...
Loading historical data...

Documentation

Showing up to 5 results
|